INMARSAT 5-F2 (40384 NORAD) Tracking and Keplerian Element Data

This shows tracking and keplerian element data for the satellite.

Feedback or suggestion? Click here.




ElementValue
Catalog40384
NameINMARSAT 5-F2
Epoch Orbit1392
Epoch Day322.36131565
Epoch Year2018
RAAN294.6747
Inclination0.0195
Eccentricity4.44E-05
Argument of Perigee346.897
Mean Anonmoly210.8903
Mean Motion1.00272271
Decay Rate-2.77E-06
L11 40384U 15005A 18322.36131565 -.00000277 00000-0 00000-0 0 9993
L22 40384 0.0195 294.6747 0000444 346.8970 210.8903 1.00272271 13924

Live tracking and technical data element details for INMARSAT 5-F2 (NORAD 40384). INMARSAT 5-F2 can be tracked NOW for your location showing map with azimuth and elevation plus other details from your city location.

Track the satellite on the map from your city or location and see movement details for azimuth, elevation, latitude, longitude, range, height, and movement on the map or in text.







IsCatalogInMostPopularTable: catalog: 40384, numindb: 118
Update: records affected: 1



GetName: 40384 INMARSAT 5-F2

Hit Count: updated at: Mon, 19 Nov 2018 11:44:34 GMT